Date,TemperatureHighF,TemperatureAvgF,TemperatureLowF,DewpointHighF,DewpointAvgF,DewpointLowF,HumidityHigh,HumidityAvg,HumidityLow,PressureMaxIn,PressureMinIn,WindSpeedMaxMPH,WindSpeedAvgMPH,GustSpeedMaxMPH,PrecipitationSumIn
2013-1-1,13,6,0,5,2,-3,88,81,68,30.30,30.20,3,0,6,0.00
2013-1-2,25,19,7,20,12,2,87,77,60,30.23,30.11,5,1,7,0.00
2013-1-3,25,21,13,20,17,9,89,84,80,30.26,30.09,7,1,8,0.00
2013-1-4,27,19,10,19,14,6,88,81,70,30.25,30.12,8,2,13,0.00
2013-1-5,35,26,13,32,23,10,96,89,74,30.27,29.91,6,2,8,0.01
2013-1-6,33,25,16,32,22,14,94,86,79,30.33,29.89,9,2,11,0.00
2013-1-7,37,26,13,27,20,11,91,78,61,30.32,30.09,7,2,12,0.00
2013-1-8,40,33,24,31,28,22,94,81,66,30.15,29.97,7,2,10,0.13
2013-1-9,39,34,27,31,27,21,87,75,60,30.47,29.94,8,2,16,0.09
2013-1-10,40,31,19,35,27,17,97,86,69,30.54,29.92,4,1,9,0.51
2013-1-11,50,42,36,47,41,35,98,96,86,29.92,29.63,7,2,11,0.15
2013-1-12,51,38,24,46,32,21,91,79,69,30.00,29.64,9,3,15,0.00
2013-1-13,24,18,12,22,13,5,90,80,73,30.24,29.90,10,2,11,0.00
2013-1-14,22,14,8,11,8,4,92,74,56,30.50,30.25,4,0,8,0.00
2013-1-15,30,20,10,16,12,8,92,75,53,30.48,30.14,4,1,7,0.00
2013-1-16,32,26,17,28,19,10,88,76,63,30.13,29.79,8,2,14,0.00
2013-1-17,27,19,11,18,8,2,84,64,48,30.45,30.09,8,2,13,0.00
2013-1-18,40,28,10,32,21,7,89,77,66,30.47,29.85,10,3,16,0.05
2013-1-19,42,37,16,34,29,4,84,75,45,29.91,29.66,6,2,18,0.04
2013-1-20,15,10,5,4,-1,-2,72,64,51,30.32,29.93,8,2,17,0.00
2013-1-21,9,2,-4,3,-6,-12,82,69,60,30.34,30.17,9,2,16,0.00
2013-1-22,6,-1,-8,-4,-9,-15,74,68,61,30.44,30.34,7,1,14,0.00
2013-1-23,16,10,1,13,4,-6,87,76,65,30.45,30.15,12,2,20,0.00
2013-1-24,17,8,-1,8,0,-7,77,68,52,30.72,30.44,9,2,14,0.00
2013-1-25,23,18,15,18,12,5,88,78,58,30.42,29.99,7,2,9,0.00
2013-1-26,23,16,6,13,8,3,87,73,57,30.45,30.23,4,0,7,0.00
2013-1-27,32,27,22,31,22,13,100,83,66,30.41,29.92,7,1,10,0.00
2013-1-28,40,35,32,37,33,30,98,92,76,29.98,29.81,5,0,8,0.18
2013-1-29,58,44,35,57,43,34,99,97,93,29.83,29.46,9,2,12,1.68
2013-1-30,36,27,15,35,26,11,97,93,86,29.60,29.28,13,5,19,0.12
2013-1-31,15,10,1,12,5,-4,88,80,71,30.18,29.61,8,2,14,0.00
2013-2-1,6,1,-4,3,-5,-8,88,78,68,30.38,30.19,6,1,9,0.00
2013-2-2,10,6,0,5,2,-3,89,80,68,30.22,30.09,9,2,10,0.00
2013-2-3,18,11,1,11,6,-2,89,80,66,30.11,30.00,6,0,14,0.00
2013-2-4,17,12,5,13,8,1,90,83,66,30.09,29.98,9,2,11,0.00
2013-2-5,26,17,0,22,13,-3,92,86,77,30.16,29.84,6,1,11,0.00
2013-2-6,32,21,3,29,16,0,93,81,69,30.28,30.13,5,0,6,0.05
2013-2-7,33,31,21,32,29,20,97,93,86,30.15,29.93,8,1,13,0.07
2013-2-8,23,18,5,20,15,3,94,89,83,30.45,30.06,10,3,14,0.00
2013-2-9,27,18,5,24,16,2,100,91,87,30.46,30.14,5,1,7,0.00
2013-2-10,43,34,22,42,32,21,98,95,84,30.14,29.44,8,2,11,0.32
2013-2-11,39,31,26,35,26,21,89,83,77,29.99,29.44,9,4,18,0.00
2013-2-12,27,23,20,21,18,16,93,82,70,30.11,29.91,6,1,10,0.00
2013-2-13,39,30,20,30,25,18,95,84,69,29.91,29.72,4,1,7,0.00
2013-2-14,34,32,27,33,29,22,94,87,79,29.99,29.60,8,1,13,0.05
2013-2-15,27,19,11,25,11,4,92,71,55,30.23,30.00,12,2,16,0.00
2013-2-16,15,10,4,4,1,-1,85,69,52,30.25,30.18,7,1,14,0.00
2013-2-17,25,14,0,13,3,-4,86,64,41,30.28,30.04,4,1,7,0.00
2013-2-18,46,35,24,40,28,13,96,78,63,30.03,29.44,6,2,10,0.45
2013-2-19,28,14,6,26,10,0,94,84,74,30.20,29.51,6,2,12,0.00
2013-2-20,19,11,4,10,5,-1,88,77,67,30.45,30.20,7,2,11,0.00
2013-2-21,25,19,10,23,15,7,92,86,76,30.48,30.13,11,4,15,0.00
2013-2-22,30,27,23,28,25,21,95,93,86,30.13,29.81,9,2,13,0.02
2013-2-23,28,24,19,24,20,16,92,85,74,29.96,29.86,6,2,9,0.01
2013-2-24,35,25,17,26,20,15,92,82,65,30.18,29.96,3,0,6,0.09
2013-2-25,40,28,15,27,22,13,93,79,57,30.22,30.09,3,0,6,0.14
2013-2-26,33,31,30,31,28,25,97,87,77,30.08,29.63,16,7,29,0.00
2013-2-27,32,30,28,31,29,27,97,96,94,29.77,29.60,16,8,18,0.01
2013-2-28,32,29,23,30,26,19,95,87,78,30.15,29.78,16,8,21,0.00
2013-3-1,24,22,20,19,18,14,86,83,76,30.28,30.13,13,6,18,0.00
2013-3-2,22,17,9,15,12,7,91,79,71,30.27,30.22,9,3,12,0.00
2013-3-3,27,15,4,15,5,-2,91,68,30,30.22,30.15,5,1,9,0.00
2013-3-4,33,21,5,24,16,1,89,80,65,30.20,30.10,8,2,12,0.01
2013-3-5,30,28,25,26,24,23,95,87,75,30.10,29.92,12,5,17,0.00
2013-3-6,33,28,25,27,25,22,91,85,79,30.34,30.09,11,3,13,0.02
2013-3-7,36,27,18,23,20,14,87,74,56,30.48,30.34,4,0,7,0.01
2013-3-8,40,28,12,28,22,10,94,79,61,30.52,30.34,5,0,7,0.00
2013-3-9,39,34,29,34,30,24,93,82,76,30.34,29.85,5,1,8,0.09
2013-3-10,42,38,36,41,38,34,98,96,91,29.85,29.64,13,2,16,0.76
2013-3-11,38,33,29,38,33,27,98,97,91,29.75,29.54,4,0,8,0.06
2013-3-12,32,28,25,26,23,19,93,82,64,30.01,29.76,6,1,12,0.04
2013-3-13,30,24,18,21,13,8,87,64,40,30.34,30.02,10,2,17,0.00
2013-3-14,35,27,16,27,18,10,93,70,42,30.34,30.10,3,1,6,0.00
2013-3-15,36,30,27,33,28,25,96,91,83,30.10,29.83,7,2,13,0.04
2013-3-16,30,26,22,26,21,17,93,81,67,30.17,29.83,12,4,14,0.01
2013-3-17,28,24,17,22,15,9,82,71,63,30.30,30.07,10,3,14,0.00
2013-3-18,33,28,17,31,25,11,94,88,77,30.06,29.60,7,2,12,0.07
2013-3-19,29,19,13,14,10,8,82,69,45,30.07,29.73,7,2,15,0.00
2013-3-20,21,15,9,8,4,-1,69,62,53,30.10,30.06,8,2,13,0.00
2013-3-21,28,16,7,14,7,1,79,68,54,30.11,30.06,6,1,12,0.00
2013-3-22,34,22,11,17,13,7,82,68,50,30.13,30.07,6,1,8,0.00
2013-3-23,38,28,17,24,19,13,92,71,46,30.19,30.09,5,1,10,0.00
2013-3-24,33,30,29,28,25,22,92,81,73,30.10,29.79,15,6,21,0.02
2013-3-25,32,29,25,26,24,20,88,80,69,30.12,29.81,17,6,22,0.00
2013-3-26,40,34,28,29,26,23,83,72,64,30.26,30.12,8,2,14,0.00
2013-3-27,42,35,26,26,22,19,80,63,42,30.33,30.26,9,1,12,0.00
2013-3-28,46,34,24,25,21,19,83,60,36,30.37,30.32,5,0,9,0.00
2013-3-29,50,37,25,26,22,19,80,57,32,30.35,30.26,4,0,7,0.00
2013-3-30,54,42,29,41,30,20,92,65,48,30.26,29.82,7,2,11,0.02
2013-3-31,50,40,31,41,34,20,94,80,49,29.90,29.70,6,1,10,0.00
2013-4-1,36,30,24,20,15,12,70,55,42,30.22,29.91,10,2,16,0.00
2013-4-2,41,30,20,17,14,11,79,54,31,30.36,30.22,7,1,12,0.00
2013-4-3,43,32,20,20,15,8,84,53,24,30.52,30.34,9,1,11,0.00
2013-4-4,56,42,28,35,22,9,64,47,37,30.33,29.99,7,2,11,0.00
2013-4-5,43,36,28,28,25,18,86,66,51,30.28,30.06,10,2,14,0.00
2013-4-6,61,46,33,49,35,21,91,66,46,30.19,29.55,8,2,13,0.14
2013-4-7,52,42,35,49,34,30,90,75,57,29.99,29.55,6,1,12,0.00
2013-4-8,49,41,34,45,38,29,96,90,81,30.02,29.62,10,2,16,0.65
2013-4-9,40,37,35,39,36,34,98,96,93,30.05,29.90,15,4,21,0.84
2013-4-10,37,35,32,35,34,31,96,95,93,30.09,29.88,14,6,20,1.02
2013-4-11,36,35,34,35,34,32,100,96,93,29.97,29.61,25,5,26,0.36
2013-4-12,40,36,33,37,34,30,98,93,84,29.81,29.54,5,1,9,0.12
2013-4-13,38,35,30,31,28,26,92,77,62,30.02,29.80,7,1,12,0.01
2013-4-14,52,36,28,47,33,26,94,88,76,30.05,29.66,11,2,15,0.04
2013-4-15,62,51,40,51,45,35,100,83,47,29.96,29.64,9,2,17,0.34
2013-4-16,52,42,32,38,34,30,100,75,52,30.32,29.95,9,1,14,0.00
2013-4-17,42,39,37,41,36,32,96,87,71,30.35,29.89,8,3,18,0.51
2013-4-18,51,45,39,50,44,34,98,96,82,29.89,29.37,12,2,16,0.83
2013-4-19,39,35,30,35,29,20,86,77,64,29.91,29.38,10,4,17,0.02
2013-4-20,44,34,26,24,19,14,78,58,31,30.45,29.92,7,2,13,0.02
2013-4-21,47,38,29,30,25,20,83,60,39,30.56,30.32,6,2,9,0.00
2013-4-22,66,52,41,39,34,30,67,51,33,30.32,30.04,6,2,9,0.00
2013-4-23,53,44,36,48,39,32,94,84,54,30.03,29.89,12,2,13,0.32
2013-4-24,53,42,33,32,27,22,83,58,31,30.06,29.96,7,2,15,0.00
2013-4-25,53,44,37,37,31,27,91,63,39,30.31,29.99,7,2,12,0.04
2013-4-26,68,53,37,46,37,27,71,56,40,30.32,30.17,8,3,13,0.00
2013-4-27,68,57,47,48,44,38,87,62,43,30.25,30.01,5,1,8,0.00
2013-4-28,71,57,46,50,44,40,88,64,41,30.01,29.79,5,0,6,0.00
2013-4-29,70,60,49,55,52,47,95,74,49,29.86,29.74,7,1,8,0.00
2013-4-30,86,72,61,61,56,49,86,61,28,29.88,29.70,10,4,15,0.00
2013-5-1,84,70,48,58,53,39,78,57,28,30.19,29.89,9,2,14,0.00
2013-5-2,56,46,38,47,40,34,95,80,59,30.25,30.18,12,5,16,1.07
2013-5-3,48,42,36,45,40,35,96,94,87,30.21,30.02,10,4,14,0.65
2013-5-4,68,56,46,49,46,42,92,70,46,30.07,30.00,6,1,11,0.03
2013-5-5,70,58,44,47,42,38,87,58,37,30.07,30.01,8,1,11,0.00
2013-5-6,73,61,44,44,37,31,83,46,22,30.07,29.98,8,1,9,0.00
2013-5-7,75,62,46,46,40,33,77,48,27,30.06,29.99,6,1,10,0.00
2013-5-8,82,64,44,49,43,38,89,53,21,30.04,29.95,3,0,7,0.00
2013-5-9,69,56,42,59,49,41,95,78,54,29.95,29.89,10,2,17,0.27
2013-5-10,47,43,39,44,41,38,96,92,86,30.00,29.84,14,5,20,0.74
2013-5-11,52,45,36,49,36,26,98,75,41,30.03,29.79,11,2,20,0.04
2013-5-12,52,43,35,34,28,23,84,57,34,30.13,30.04,9,2,16,0.01
2013-5-13,62,46,30,36,31,25,96,61,28,30.20,29.97,4,1,11,0.00
2013-5-14,82,66,47,58,48,32,68,52,35,29.96,29.54,13,1,18,0.00
2013-5-15,79,71,57,60,49,42,68,47,28,29.82,29.54,8,1,11,0.00
2013-5-16,79,64,55,53,42,27,77,47,30,29.99,29.82,5,1,11,0.00
2013-5-17,59,54,47,49,43,32,93,68,38,30.11,29.97,5,1,9,0.59
2013-5-18,79,63,51,62,53,44,88,71,53,30.09,29.95,4,0,7,0.00
2013-5-19,84,70,55,67,61,54,94,75,55,29.95,29.67,7,1,7,0.00
2013-5-20,85,75,66,64,60,57,87,62,38,29.73,29.64,4,1,8,0.02
2013-5-21,79,69,61,64,60,56,95,76,47,29.68,29.59,6,1,7,0.06
2013-5-22,65,60,54,64,58,53,97,93,81,29.75,29.61,3,0,6,0.48
2013-5-23,54,48,39,53,44,35,97,86,67,30.33,29.76,11,4,15,0.06
2013-5-24,61,47,36,41,35,31,90,66,42,30.47,30.34,4,1,7,0.00
2013-5-25,59,50,41,39,36,28,87,59,33,30.43,30.32,3,0,6,0.00
2013-5-26,66,53,37,44,40,35,92,64,40,30.33,30.19,3,0,7,0.00
2013-5-27,53,51,49,51,47,39,97,87,63,30.19,29.92,5,1,8,0.01
2013-5-28,70,59,49,67,58,48,99,96,87,29.91,29.71,1,0,4,0.92
2013-5-29,84,70,59,68,64,58,99,82,55,29.90,29.77,2,0,6,0.00
2013-5-30,83,73,63,71,67,62,96,80,58,29.87,29.72,5,1,12,0.37
2013-5-31,74,67,61,68,63,61,98,87,67,29.82,29.68,4,0,6,0.10
2013-6-1,75,69,61,66,64,58,98,86,67,29.69,29.59,4,0,6,0.34
2013-6-2,60,53,46,58,47,42,94,80,63,30.03,29.65,7,2,13,0.00
2013-6-3,70,56,42,50,44,40,98,68,38,30.11,30.02,3,0,6,0.00
2013-6-4,70,59,52,50,45,39,81,62,44,30.18,30.09,3,0,7,0.00
2013-6-5,62,55,50,52,48,44,94,79,54,30.15,29.98,2,0,5,0.07
2013-6-6,58,54,50,55,50,46,95,87,73,29.98,29.92,3,0,6,0.02
2013-6-7,70,59,49,51,46,41,95,66,35,29.99,29.92,5,0,8,0.03
2013-6-8,70,59,48,51,48,44,89,69,48,30.03,29.92,4,1,6,0.00
2013-6-9,77,65,53,62,56,47,87,73,57,30.03,29.83,3,0,7,0.00
2013-6-10,76,67,58,66,62,56,94,84,65,29.84,29.76,2,0,4,0.00
2013-6-11,84,71,58,67,63,56,98,77,53,29.91,29.78,4,0,7,0.00
2013-6-12,74,67,60,65,63,59,97,87,71,29.89,29.62,5,1,16,1.10
2013-6-13,73,64,54,59,55,51,96,74,53,30.07,29.68,8,2,13,0.00
2013-6-14,78,64,54,57,51,47,86,66,44,30.14,30.01,4,1,6,0.00
2013-6-15,78,66,54,69,61,47,97,85,69,30.07,29.81,4,0,10,0.46
2013-6-16,83,72,63,67,61,53,98,72,37,29.89,29.81,4,1,8,0.67
2013-6-17,86,68,57,63,57,51,89,70,39,29.96,29.84,6,1,19,0.03
2013-6-18,69,59,52,56,50,41,91,73,49,30.09,29.95,5,2,9,0.00
2013-6-19,76,62,47,52,48,43,91,63,38,30.16,30.08,3,0,4,0.01
2013-6-20,86,70,55,64,54,42,78,59,40,30.15,30.05,1,0,4,0.00
2013-6-21,74,69,64,68,64,55,97,85,62,30.10,29.89,11,0,18,0.78
2013-6-22,77,70,65,71,67,64,98,91,81,30.10,29.92,5,0,8,0.15
2013-6-23,87,74,63,75,68,62,97,81,63,30.00,29.85,2,0,4,0.03
2013-6-24,79,72,67,70,68,65,97,86,68,29.99,29.83,3,0,4,0.01
2013-6-25,81,71,65,73,68,64,98,92,76,29.92,29.79,2,0,4,0.01
2013-6-26,78,71,66,70,68,65,97,89,74,29.80,29.69,1,0,3,0.02
2013-6-27,86,73,65,73,68,62,99,85,59,29.76,29.66,5,1,13,0.01
2013-6-28,76,69,63,65,62,60,97,81,61,29.69,29.58,7,1,14,0.01
2013-6-29,72,65,61,62,59,56,97,83,59,29.81,29.59,9,3,16,0.00
2013-6-30,76,67,59,60,52,44,81,60,38,30.02,29.82,7,3,12,0.01
2013-7-1,77,68,58,54,49,44,72,52,35,30.10,30.02,8,3,10,0.01
2013-7-2,72,63,56,53,50,44,85,64,40,30.11,30.07,5,1,9,0.00
2013-7-3,68,63,59,63,59,53,92,86,77,30.08,30.02,4,0,5,0.00
2013-7-4,82,71,59,66,61,57,97,75,45,30.09,30.00,1,0,3,0.01
2013-7-5,84,73,61,67,63,59,93,72,52,30.06,29.98,2,0,4,0.00
2013-7-6,86,73,62,68,64,60,94,75,45,30.03,29.94,2,0,3,0.01
2013-7-7,86,76,66,73,69,65,96,81,63,29.97,29.89,1,0,3,0.00
2013-7-8,85,76,71,76,71,69,97,86,73,29.96,29.88,3,0,6,0.00
2013-7-9,80,73,66,76,70,66,98,92,82,29.97,29.80,2,0,4,0.00
2013-7-10,77,72,65,73,63,56,97,74,51,29.99,29.81,7,2,12,0.01
2013-7-11,78,67,56,63,56,54,94,71,45,30.11,30.00,5,1,8,0.00
2013-7-12,85,68,52,62,54,42,93,66,30,30.16,30.07,2,0,5,0.00
2013-7-13,84,71,58,63,59,54,95,69,44,30.16,30.09,2,0,6,0.00
2013-7-14,88,75,61,71,66,59,94,76,55,30.21,30.15,3,0,5,0.00
2013-7-15,88,77,67,76,71,65,96,82,63,30.25,30.20,2,0,5,0.00
2013-7-16,92,81,72,77,74,71,97,80,58,30.26,30.20,1,0,3,0.00
2013-7-17,94,82,73,77,74,72,96,80,52,30.26,30.13,2,0,4,0.00
2013-7-18,92,82,72,77,74,71,98,78,55,30.14,29.87,2,0,4,0.00
2013-7-19,90,82,73,75,71,63,83,70,57,29.87,29.69,3,1,7,0.00
2013-7-20,84,71,62,65,62,56,90,74,51,29.95,29.78,5,1,8,0.00
2013-7-21,80,67,62,68,61,55,97,80,62,29.97,29.86,7,1,12,0.00
2013-7-22,85,73,62,72,67,61,99,83,56,29.88,29.66,1,0,4,0.00
2013-7-23,72,67,57,66,58,53,93,74,53,29.98,29.68,10,2,13,0.00
2013-7-24,72,62,52,58,52,50,91,74,50,30.08,29.99,6,1,9,0.00
2013-7-25,78,66,51,63,57,49,94,77,56,30.09,29.96,1,0,3,0.00
2013-7-26,69,64,58,67,62,57,97,93,85,29.97,29.84,1,0,3,0.00
2013-7-27,59,55,52,57,50,46,97,82,67,29.92,29.86,9,2,11,0.00
2013-7-28,66,58,51,55,51,49,95,81,63,30.00,29.84,7,1,8,0.00
2013-7-29,73,62,54,60,55,51,91,78,58,30.18,30.00,3,0,5,0.01
2013-7-30,77,64,55,65,60,54,97,86,63,30.19,30.09,1,0,4,0.91
2013-7-31,76,65,60,68,63,59,98,94,75,30.08,29.94,2,0,13,0.23
2013-8-1,76,66,58,62,57,53,98,76,47,29.98,29.90,7,1,12,0.00
2013-8-2,80,69,58,67,60,55,96,77,51,29.93,29.83,3,0,7,0.01
2013-8-3,75,66,54,58,54,51,90,68,47,30.11,29.94,6,1,9,0.00
2013-8-4,74,63,57,59,56,52,94,78,51,30.22,30.11,3,1,5,0.00
2013-8-5,71,63,55,63,58,53,95,87,73,30.13,29.87,1,0,4,0.02
2013-8-6,83,71,62,71,66,61,99,86,63,29.86,29.77,2,0,4,0.01
2013-8-7,80,73,63,71,67,61,96,82,60,29.96,29.73,6,1,9,0.00
2013-8-8,76,66,58,62,56,50,97,72,43,30.05,29.95,4,0,6,0.00
2013-8-9,78,67,54,66,58,51,90,75,59,30.05,29.96,3,0,5,0.00
2013-8-10,74,65,54,62,57,52,96,77,52,30.14,30.05,4,0,7,0.00
2013-8-11,72,63,54,66,60,52,96,90,79,30.13,30.02,2,0,5,0.07
2013-8-12,81,69,62,67,63,58,98,83,50,30.02,29.88,6,1,7,0.11
2013-8-13,67,59,51,57,49,46,93,71,51,30.18,29.98,6,2,13,0.00
2013-8-14,71,59,47,54,50,44,93,73,46,30.23,30.14,4,1,7,0.00
2013-8-15,78,64,53,59,54,48,93,72,39,30.15,30.08,3,0,6,0.00
2013-8-16,78,66,56,60,56,54,94,73,47,30.19,30.12,3,0,6,0.00
2013-8-17,81,65,52,62,56,51,98,75,45,30.25,30.17,2,0,4,0.00
2013-8-18,82,66,52,62,57,50,95,75,47,30.22,30.09,2,0,5,0.00
2013-8-19,82,69,56,65,60,54,94,76,49,30.11,30.01,2,0,5,0.00
2013-8-20,86,73,62,68,65,60,96,78,50,30.07,30.00,3,0,6,0.00
2013-8-21,88,77,68,71,68,64,90,74,55,30.02,29.88,4,0,9,0.00
2013-8-22,75,69,60,71,66,56,97,89,75,30.11,29.97,4,0,15,0.73
2013-8-23,80,67,57,64,59,55,97,77,47,30.19,30.11,4,0,7,0.00
2013-8-24,83,68,54,66,61,53,98,79,53,30.26,30.16,1,0,3,0.00
2013-8-25,88,75,65,70,65,59,90,72,47,30.20,30.07,4,0,6,0.00
2013-8-26,88,78,70,76,70,65,85,77,65,30.10,29.93,3,0,6,0.00
2013-8-27,92,82,73,76,73,70,90,76,57,29.93,29.76,4,0,5,0.00
2013-8-28,83,75,66,74,70,64,94,84,65,30.02,29.79,4,1,7,0.00
2013-8-29,88,74,63,71,67,61,97,80,49,30.07,29.96,1,0,3,0.00
2013-8-30,92,73,66,77,69,63,98,87,62,29.96,29.74,14,1,26,0.64
2013-8-31,77,68,62,69,64,60,96,87,73,29.86,29.78,3,0,4,0.00
2013-9-1,82,68,60,73,66,59,98,90,67,29.82,29.69,10,0,14,0.33
2013-9-2,68,63,56,61,57,52,96,83,67,30.00,29.80,6,1,8,0.00
2013-9-3,73,60,49,59,53,47,97,80,53,30.10,30.00,3,0,5,0.00
2013-9-4,79,65,52,65,59,51,97,83,61,30.13,30.03,4,0,5,0.00
2013-9-5,70,63,52,62,54,48,93,74,53,30.28,30.13,4,0,9,0.00
2013-9-6,84,66,49,69,59,47,98,81,61,30.23,29.98,1,0,3,0.00
2013-9-7,77,71,66,72,67,63,96,88,74,29.98,29.87,6,0,12,0.48
2013-9-8,71,66,63,66,63,60,93,89,80,30.05,29.95,6,1,9,0.00
2013-9-9,88,75,65,77,71,63,97,86,70,29.97,29.76,2,0,3,0.00
2013-9-10,92,81,74,72,67,64,77,64,43,29.91,29.78,4,0,10,0.00
2013-9-11,79,72,66,69,66,64,94,82,66,30.05,29.91,2,0,5,0.02
2013-9-12,71,64,55,65,58,45,97,81,56,30.12,29.95,10,2,14,0.00
2013-9-13,55,50,46,46,44,41,90,79,63,30.22,30.12,7,2,11,0.00
2013-9-14,68,54,42,51,46,41,97,77,48,30.19,30.02,4,0,6,0.00
2013-9-15,57,55,52,56,52,47,97,90,70,30.24,30.00,7,1,11,0.50
2013-9-16,61,51,41,49,44,39,93,80,60,30.41,30.24,7,2,10,0.00
2013-9-17,67,54,41,56,50,39,97,85,63,30.37,30.13,1,0,3,0.00
2013-9-18,76,64,56,68,61,55,97,90,75,30.13,29.89,2,0,3,0.11
2013-9-19,79,70,65,74,68,64,98,93,82,29.90,29.71,1,0,5,0.31
2013-9-20,71,65,57,66,61,54,98,88,73,29.80,29.68,4,0,8,0.01
2013-9-21,56,52,45,54,48,43,95,85,69,29.96,29.79,5,1,11,0.00
2013-9-22,60,50,43,47,43,39,94,78,51,30.10,29.96,3,1,6,0.00
2013-9-23,62,51,41,52,47,40,97,85,66,30.15,30.07,4,0,7,0.00
2013-9-24,66,56,49,56,51,47,98,85,60,30.08,29.98,3,0,7,0.00
2013-9-25,65,56,49,58,52,47,97,85,63,30.01,29.97,3,0,6,0.00
2013-9-26,72,59,49,60,53,48,98,82,48,30.10,30.00,2,0,5,0.01
2013-9-27,77,61,51,58,54,49,97,79,49,30.17,30.07,1,0,5,0.00
2013-9-28,78,65,54,65,58,52,96,79,55,30.08,29.83,9,1,12,0.28
2013-9-29,66,56,48,52,48,41,97,79,41,30.06,29.94,3,0,5,0.01
2013-9-30,69,56,43,53,48,42,97,77,50,30.01,29.85,2,0,4,0.00
2013-10-1,78,66,54,63,59,49,94,80,58,29.95,29.82,5,0,6,0.00
2013-10-2,73,60,46,58,47,37,97,68,28,30.11,29.95,2,0,5,0.00
2013-10-3,72,64,55,67,62,52,97,91,81,29.99,29.83,7,0,9,0.64
2013-10-4,64,62,59,64,61,58,100,98,96,30.01,29.86,4,0,8,0.10
2013-10-5,69,64,60,69,63,59,99,98,98,29.95,29.72,1,0,5,0.35
2013-10-6,62,52,46,62,47,43,98,83,62,29.74,29.66,3,0,5,0.05
2013-10-7,62,51,44,48,45,43,97,83,52,30.10,29.71,6,1,9,0.02
2013-10-8,72,55,41,54,48,40,98,78,44,30.18,30.10,2,0,3,0.00
2013-10-9,69,57,49,54,49,45,93,75,43,30.24,30.14,1,0,3,0.00
2013-10-10,70,57,45,55,50,44,98,82,48,30.18,30.06,1,0,4,0.00
2013-10-11,72,60,52,59,54,52,97,82,60,30.07,29.96,2,0,4,0.00
2013-10-12,63,59,49,62,53,39,97,82,57,30.15,29.91,2,0,5,0.33
2013-10-13,57,47,39,43,40,37,94,77,49,30.43,30.15,5,1,9,0.00
2013-10-14,57,46,36,47,41,34,97,83,59,30.45,30.17,4,0,7,0.00
2013-10-15,58,52,46,57,50,44,98,92,85,30.16,29.74,2,0,6,0.33
2013-10-16,53,49,46,51,47,43,97,93,87,29.93,29.78,3,0,5,0.02
2013-10-17,50,45,40,45,43,39,96,92,77,29.92,29.82,5,0,6,0.11
2013-10-18,48,43,38,43,40,37,96,87,79,29.95,29.82,4,0,9,0.00
2013-10-19,49,42,37,39,37,35,95,84,60,29.93,29.75,5,0,6,0.02
2013-10-20,49,42,32,47,39,31,97,91,65,29.88,29.73,2,0,4,0.08
2013-10-21,46,39,33,44,32,24,94,76,61,29.95,29.76,6,1,12,0.01
2013-10-22,43,35,28,32,28,24,86,75,60,29.99,29.93,3,0,6,0.00
2013-10-23,41,35,27,30,26,21,91,72,46,30.04,29.95,7,1,11,0.00
2013-10-24,40,36,31,29,27,25,85,73,57,30.31,30.03,5,1,11,0.00
2013-10-25,48,38,26,31,28,24,93,68,46,30.40,29.94,5,1,11,0.00
2013-10-26,48,45,40,36,31,27,73,58,47,30.07,29.79,10,2,15,0.00
2013-10-27,52,41,29,33,31,27,92,69,44,30.06,29.93,5,0,8,0.00
2013-10-28,43,40,35,35,32,28,85,75,68,30.45,30.06,10,3,17,0.00
2013-10-29,50,42,34,43,38,28,95,85,75,30.43,30.17,4,1,7,0.00
2013-10-30,54,49,42,53,48,42,97,96,92,30.16,29.75,1,0,5,0.00
2013-10-31,60,55,43,60,55,42,98,97,94,29.75,29.21,5,1,13,1.08
2013-11-1,45,43,41,43,41,39,96,93,90,29.74,29.29,7,1,7,0.06
2013-11-2,44,41,38,41,38,36,96,91,74,30.17,29.74,6,1,10,0.01
2013-11-3,49,40,29,40,36,28,98,85,58,30.33,30.17,3,0,5,0.01
2013-11-4,54,48,42,45,40,37,88,76,61,30.28,30.07,4,1,7,0.00
2013-11-5,54,50,47,50,47,44,96,88,78,30.26,29.90,3,0,7,0.06
2013-11-6,54,43,31,54,40,26,97,89,71,30.16,29.72,9,2,15,0.43
2013-11-7,39,33,27,32,29,25,94,83,71,30.25,30.16,4,0,8,0.00
2013-11-8,45,36,25,34,30,24,96,79,65,30.34,29.88,4,0,6,0.00
2013-11-9,51,46,40,40,36,26,80,69,56,30.05,29.78,10,2,18,0.00
2013-11-10,46,41,37,32,30,27,73,65,52,30.32,30.06,7,1,15,0.00
2013-11-11,42,32,23,34,26,14,94,77,67,30.57,30.07,11,3,15,0.09
2013-11-12,28,23,18,17,15,13,84,72,55,30.74,30.57,5,1,12,0.00
2013-11-13,39,29,18,20,16,14,83,61,40,30.60,30.11,8,2,13,0.00
2013-11-14,45,39,33,30,25,19,68,59,52,30.10,29.92,6,2,10,0.00
2013-11-15,53,43,36,35,32,28,88,65,51,29.96,29.90,4,1,7,0.00
2013-11-16,58,48,38,55,46,34,97,92,85,29.92,29.52,10,3,14,0.06
2013-11-17,63,51,39,61,49,35,97,92,80,29.65,29.04,18,2,20,0.40
2013-11-18,39,33,26,34,26,21,83,75,66,30.27,29.64,9,2,16,0.00
2013-11-19,38,29,20,31,24,18,94,82,57,30.42,30.27,4,0,6,0.00
2013-11-20,42,36,32,33,29,25,95,77,54,30.32,30.14,6,2,12,0.05
2013-11-21,44,40,34,40,38,33,97,91,84,30.26,30.14,6,1,8,0.00
2013-11-22,38,31,24,36,26,17,94,83,69,30.49,30.25,11,3,15,0.03
2013-11-23,24,17,11,17,7,2,77,65,53,30.76,30.42,13,4,19,0.00
2013-11-24,24,17,8,8,5,3,83,62,41,30.75,30.34,10,2,13,0.00
2013-11-25,28,25,21,26,20,6,93,81,52,30.34,30.07,8,2,11,0.00
2013-11-26,30,24,11,27,18,4,91,78,58,30.23,30.05,8,2,15,0.00
2013-11-27,24,16,8,16,10,3,86,75,59,30.30,30.22,7,1,12,0.00
2013-11-28,26,21,11,17,14,8,91,76,65,30.56,30.23,4,0,10,0.00
2013-11-29,29,21,8,23,15,6,93,79,59,30.70,30.43,3,0,6,0.01
2013-11-30,44,34,27,32,28,21,88,77,60,30.42,30.06,4,1,6,0.03
2013-12-1,38,32,26,30,27,24,93,82,64,30.16,30.02,8,1,9,0.00
2013-12-2,39,32,21,33,28,20,96,87,73,30.01,29.81,3,0,7,0.01
2013-12-3,39,37,33,38,36,32,98,97,95,29.80,29.71,6,1,8,0.14
2013-12-4,50,42,36,49,42,33,98,97,89,29.79,29.47,8,1,15,0.02
2013-12-5,35,24,15,33,17,9,91,75,64,30.29,29.61,9,2,14,0.00
2013-12-6,15,11,7,8,4,1,81,75,65,30.60,30.27,7,2,11,0.00
2013-12-7,14,6,1,3,0,-4,86,76,62,30.76,30.61,5,1,10,0.00
2013-12-8,24,16,4,23,13,1,95,86,68,30.69,29.99,8,1,11,0.00
2013-12-9,24,11,-4,23,7,-8,95,82,68,30.23,29.96,7,1,12,0.00
2013-12-10,18,7,-6,11,1,-10,87,78,67,30.33,30.00,7,2,14,0.00
2013-12-11,12,5,-4,10,-1,-10,89,75,61,30.59,30.32,7,1,16,0.00
2013-12-12,15,7,-5,9,1,-10,82,75,67,30.58,30.26,5,1,11,0.00
2013-12-13,23,18,11,19,14,8,94,85,79,30.27,30.22,13,3,13,0.00
2013-12-14,25,22,18,23,20,16,100,92,88,30.23,29.96,8,3,12,0.00
2013-12-15,19,10,0,17,3,-7,92,75,66,30.19,29.93,6,1,13,0.00
2013-12-16,17,7,-5,10,1,-9,89,77,52,30.23,30.07,7,1,7,0.00
2013-12-17,32,22,13,25,18,11,94,86,74,30.09,29.95,6,1,9,0.07
2013-12-18,33,23,10,25,15,7,87,72,45,30.15,29.81,7,2,11,0.00
2013-12-19,32,28,24,30,26,22,95,89,80,30.01,29.83,9,2,12,0.00
2013-12-20,29,26,23,28,25,22,95,94,93,29.92,29.82,12,4,14,0.00
2013-12-21,31,27,23,30,26,22,96,95,92,29.93,29.71,12,3,15,0.00
2013-12-22,30,24,18,28,23,16,96,94,92,30.14,29.70,8,4,13,0.00
2013-12-23,20,11,0,19,9,-3,94,90,87,30.45,30.14,4,1,7,0.00
2013-12-24,13,4,-7,10,1,-10,90,87,83,30.61,30.40,4,0,7,0.00
2013-12-25,22,18,11,20,16,9,94,91,89,30.40,30.11,5,1,7,0.00
2013-12-26,24,19,10,22,17,8,94,89,84,30.30,30.11,4,0,11,0.00
2013-12-27,36,27,12,31,24,10,95,88,79,30.31,30.04,7,2,10,0.06
2013-12-28,42,36,26,34,30,24,93,80,69,30.08,29.79,7,2,9,0.46
2013-12-29,40,21,-1,31,15,-7,91,79,69,30.25,29.75,15,4,20,0.00
2013-12-30,2,-3,-11,-3,-10,-16,84,74,58,30.40,30.25,3,0,7,0.00
2013-12-31,7,4,0,2,-1,-4,85,81,71,30.44,30.27,6,1,8,0.00
2014-1-1,12,7,0,8,2,-9,85,80,66,30.44,30.34,10,6,14,0.00
2014-1-2,11,6,-5,6,1,-9,87,79,71,30.49,30.30,11,5,15,0.00